User: anonymous   Login
Location: Unspecified
(0.0000°N, 0.0000°E)
Time: 00:53:35
(UTC+00:00)
Language:

Safir 2 - Orbit

View from above orbital plane
View from above orbital plane
View from above satellite
View from above satellite

Ground track
Ground track

The orbit data is extracted from the following two-line orbital elements,

1 25399U 98043F   24106.42574858  .00000311  00000-0  15211-3 0  9996
2 25399  98.8774  68.2797 0000884 209.5322 150.5807 14.25085604338392
Epoch (UTC): 15 April 2024 10:13:04
Eccentricity: 0.0000884
inclination: 98.8774°
perigee height: 807 km
apogee height: 809 km
right ascension of ascending node: 68.2797°
argument of perigee: 209.5322°
revolutions per day: 14.25085604
mean anomaly at epoch: 150.5807°
orbit number at epoch: 33839

The dashed part of the orbit path shows where the satellite is in the earth's shadow,  

DLR